Location: Belmont
(13.0833°N, 59.6000°W)
Time: 18:48:49
(UTC+00:00)

Cosmos 2219 - Pass Details

Date: 17 September 2019
Orbit: 834 x 859 km, 71.1° (Epoch: 22 October)

Event Time Altitude Azimuth Distance (km) Brightness Sun altitude
Rises 22:28:03 0° 181° (S) 3,410 6.3 -8.1°
Reaches altitude 10° 22:30:37 10° 174° (S) 2,478 5.5 -8.7°
Maximum altitude 22:35:57 42° 104° (ESE) 1,199 3.6 -10.0°
Drops below altitude 10° 22:41:19 10° 35° (NE) 2,487 5.4 -11.3°
Sets 22:43:53 0° 28° (NNE) 3,424 6.1 -11.9°
